Other Public Products
Issued by NWS Charleston, SC

Current Version | Previous Version | Graphics & Text | Print | Product List | Glossary On
Versions: 1 2 3 4 5 6 7 8 9 10 11 12 13 14 15 16 17 18 19 20 21 22 23 24 25 26 27 28 29 30 31 32 33 34 35 36 37 38 39 40 41 42 43 44 45 46 47 48 49 50
661
FPUS82 KCHS 110927
OPUCHS

TEST...KCHS/KSAV Gateway Observations...TEST
National Weather Service Charleston SC
400 AM EST MON DEC 11 2017

NOTE: "fair" indicates few or no clouds below 12,000 feet with no
significant weather and/or obstructions to visibility.

SCZ050-WAZ558-NCZ071-TXZ119-213-PAZ071-DCZ001-FLZ074-172-MI076-
NYZ176-178-MAZ016-IL014-TNZ027-NJZ106-GAZ044-MD014-111000-

...Gateway Observations for Charleston International...

CITY           SKY/WX    TMP DP  RH WIND       PRES   REMARKS
Chas Airport   CLEAR     33  27  78 SW5       30.22F WCI  29
Seattle        CLEAR     36  32  85 CALM      30.30F
Charlotte      CLOUDY    30  24  78 CALM      30.12F
Dallas DFW     CLEAR     47  24  40 CALM      30.25F
Dallas Love    CLEAR     40  30  67 CALM      30.27S
Philladelphia  CLOUDY    34  28  79 S6        30.03F WCI  29
Wash National  CLOUDY    36  28  73 SW5       30.04F WCI  32
Baltimore      CLOUDY    34  26  72 CALM      30.03S
Miami          CLEAR     54  40  59 NW8       30.24R
Detroit        CLOUDY    26  19  74 NW8       30.04R WCI  18
Newark         CLOUDY    34  23  64 SW10      30.00R WCI  26
Laguardia      CLOUDY    37  21  52 W10       29.99R WCI  30
J F K          CLOUDY    36  25  64 W21       30.01R WCI  25
Boston Logan   CLOUDY    33  24  69 SW9       29.93S WCI  25
Ft. Lauderdale CLEAR     50  41  71 NW8       30.23R
Chicago O`Hare CLOUDY    24  17  74 SE5       30.00F WCI  18
Chicago Midway CLOUDY    27  19  72 S6        30.03F WCI  20
Houston Bush   CLEAR     44  36  73 W3        30.33F
Houston Hobby  CLEAR     39  37  92 SW5       30.33F WCI  36
Nashville      CLEAR     35  26  69 CALM      30.17S
Atlanta        CLEAR     35  28  75 W6        30.19F WCI  30

$$

GAZ044-118-TXZ119-213-NCZ071-DCZ001-MDZ014-506-PAZ021-071-NJZ106-
NYZ176-178-MAZ106-OHZ011-021-055-MIZ076-KYZ091-ILZ014-INZ047-
MNZ060-ONZ431-111000-

...Gateway Observations for Savannah International...

CITY           SKY/WX    TMP DP  RH WIND       PRES   REMARKS
Savannah Arpt  CLEAR     34  28  79 SW5       30.26F WCI  30
Atlanta        CLEAR     35  28  75 W6        30.19F WCI  30
Charlotte      CLOUDY    30  24  78 CALM      30.12F
Dallas DFW     CLEAR     47  24  40 CALM      30.25F
Houston Bush   CLEAR     44  36  73 W3        30.33F
Wash National  CLOUDY    36  28  73 SW5       30.04F WCI  32
Wash Dulles    CLOUDY    31  27  85 CALM      30.03S
Baltimore      CLOUDY    34  26  72 CALM      30.03S
Philadelphia   CLOUDY    34  28  79 S6        30.03F WCI  29
Newark         CLOUDY    34  23  64 SW10      30.00R WCI  26
Laguardia      CLOUDY    37  21  52 W10       29.99R WCI  30
J F K          CLOUDY    36  25  64 W21       30.01R WCI  25
Boston         CLOUDY    33  24  69 SW9       29.93S WCI  25
Pittsburg      CLOUDY    33  20  58 W7        29.98R WCI  27
Akron          CLOUDY    30  20  66 W10       29.99R WCI  21
Cleveland      FLURRIES  31  22  69 W8        30.03R WCI  23
Cincinnati     CLEAR     28  23  81 W6        30.08S WCI  22
Columbus       CLOUDY    31  23  73 W5        30.06S WCI  26
Detroit        CLOUDY    26  19  74 NW8       30.04R WCI  18
Chicago O`Hare CLOUDY    24  17  74 SE5       30.00F WCI  18
Minneapolis    CLOUDY    26  25  96 S8        29.83F WCI  18
Indianapolis   CLEAR     23  19  85 W3        30.08F
Toronto Canada CLOUDY    21  14  73 N7        29.95R WCI  13

$$




USA.gov is the U.S. government's official web portal to all federal, state and local government web resources and services.